Change the Weather History Date:

Wednesday, April 3, 2013

  Actual Average (KDEQ) Record (KDEQ)
Temperature  
Mean Temperature 46 °F 58 °F  
Max Temperature 50 °F 71 °F 89 °F (1940)
Min Temperature 41 °F 44 °F 25 °F (1987)
Degree Days  
Heating Degree Days 20 8  
Month to date heating degree days 25  
Since 1 July heating degree days 2893  
Cooling Degree Days 0 1  
Month to date cooling degree days 3  
Year to date cooling degree days 14  
Growing Degree Days 0 (Base 50)    
Moisture  
Dew Point 35 °F    
Average Humidity 68    
Maximum Humidity 93    
Minimum Humidity 47    
Precipitation  
Precipitation 0.03 in 0.10 in 1.98 in (1982)
Month to date precipitation 0.37  
Year to date precipitation 12.01  
Snow  
Snow 0.00 in - - ()
Month to date snowfall  
Since 1 July snowfall  
Snow Depth -    
Sea Level Pressure  
Sea Level Pressure 30.12 in    
Wind  
Wind Speed 12 mph (ENE)    
Max Wind Speed 20 mph    
Max Gust Speed 29 mph    
Visibility 10 miles    
Events      
T = Trace of Precipitation, MM = Missing Value Source: NWS Daily Summary

Daily Weather History Graph

Daily Weather History Graph

Search for Another Location

Airport or City:

Trip Planner

Search our weather history database for the weather conditions in past years. The results will help you decide how hot, cold, wet, or windy it might be!

Date:

Astronomy

Apr. 03, 2013 Rise Set
Actual Time 7:03 AM CDT 7:41 PM CDT
Civil Twilight 6:38 AM CDT 8:07 PM CDT
Nautical Twilight 6:08 AM CDT 8:36 PM CDT
Astronomical Twilight 5:38 AM CDT 9:07 PM CDT
Moon 2:27 AM CDT (4/3) 1:11 PM CDT (4/3)
Length of Visible Light 13h 28m
Length of Day
12h 38m
Last Quarter, 44% of the Moon is Illuminated
Apr 3
Last Quarter
Apr 10
New
Apr 18
First Quarter
Apr 25
Full
May 2
Last Quarter

Hourly Weather History & Observations

Time (CDT) Temp. Windchill Dew Point Humidity Pressure Visibility Wind Dir Wind Speed Gust Speed Precip Events Conditions
12:15 AM 42.8 °F 37.0 °F 41.0 °F 93% 30.10 in 10.0 mi East 10.4 mph - N/A   Overcast
12:35 AM 42.8 °F 36.2 °F 41.0 °F 93% 30.10 in 10.0 mi ENE 12.7 mph 16.1 mph N/A   Overcast
12:55 AM 42.8 °F 35.8 °F 41.0 °F 93% 30.09 in 7.0 mi East 13.8 mph 19.6 mph N/A   Overcast
1:15 AM 42.8 °F 34.8 °F 41.0 °F 93% 30.06 in 10.0 mi ENE 17.3 mph 25.3 mph N/A   Overcast
1:35 AM 42.8 °F 34.5 °F 39.2 °F 87% 30.04 in 10.0 mi East 18.4 mph 25.3 mph N/A   Overcast
1:55 AM 42.8 °F 36.6 °F 39.2 °F 87% 30.06 in 10.0 mi ENE 11.5 mph 20.7 mph N/A   Overcast
2:15 AM 41.0 °F 32.2 °F 39.2 °F 93% 30.07 in 10.0 mi ENE 18.4 mph 25.3 mph N/A   Overcast
2:35 AM 41.0 °F 34.3 °F 39.2 °F 93% 30.07 in 10.0 mi ENE 11.5 mph 20.7 mph N/A   Overcast
2:55 AM 41.0 °F 34.3 °F 39.2 °F 93% 30.07 in 10.0 mi ENE 11.5 mph - N/A   Overcast
3:15 AM 41.0 °F 33.1 °F 39.2 °F 93% 30.07 in 10.0 mi ENE 15.0 mph 19.6 mph N/A   Overcast
3:35 AM 42.8 °F 37.5 °F 39.2 °F 87% 30.09 in 10.0 mi ENE 9.2 mph - N/A   Overcast
3:55 AM 42.8 °F 37.5 °F 39.2 °F 87% 30.09 in 10.0 mi ENE 9.2 mph - N/A   Overcast
4:15 AM 42.8 °F 37.5 °F 39.2 °F 87% 30.09 in 10.0 mi East 9.2 mph - N/A   Overcast
4:35 AM 42.8 °F 37.5 °F 39.2 °F 87% 30.10 in 10.0 mi ENE 9.2 mph 16.1 mph N/A   Overcast
4:55 AM 42.8 °F 37.0 °F 39.2 °F 87% 30.11 in 10.0 mi ENE 10.4 mph 17.3 mph N/A   Overcast
5:15 AM 42.8 °F 35.8 °F 39.2 °F 87% 30.10 in 10.0 mi ENE 13.8 mph 19.6 mph N/A   Overcast
5:35 AM 42.8 °F 36.2 °F 39.2 °F 87% 30.10 in 10.0 mi ENE 12.7 mph - N/A   Overcast
5:55 AM 42.8 °F 35.8 °F 37.4 °F 81% 30.10 in 10.0 mi ENE 13.8 mph 19.6 mph N/A   Overcast
6:15 AM 41.0 °F 33.5 °F 37.4 °F 87% 30.09 in 10.0 mi East 13.8 mph 23.0 mph N/A   Overcast
6:35 AM 41.0 °F 33.9 °F 37.4 °F 87% 30.10 in 10.0 mi ENE 12.7 mph 17.3 mph N/A   Overcast
6:55 AM 41.0 °F 33.9 °F 37.4 °F 87% 30.10 in 10.0 mi ENE 12.7 mph 17.3 mph N/A   Overcast
7:15 AM 41.0 °F 33.9 °F 37.4 °F 87% 30.10 in 10.0 mi ENE 12.7 mph - N/A   Overcast
7:35 AM 42.8 °F 36.2 °F 35.6 °F 76% 30.11 in 10.0 mi ENE 12.7 mph 18.4 mph N/A   Mostly Cloudy
7:55 AM 42.8 °F 37.0 °F 35.6 °F 76% 30.12 in 10.0 mi ENE 10.4 mph - N/A   Overcast
8:15 AM 42.8 °F 35.4 °F 33.8 °F 70% 30.12 in 10.0 mi ENE 15.0 mph 20.7 mph N/A   Overcast
8:35 AM 42.8 °F 34.8 °F 33.8 °F 70% 30.14 in 10.0 mi ENE 17.3 mph 24.2 mph N/A   Overcast
8:55 AM 42.8 °F 34.8 °F 32.0 °F 66% 30.14 in 10.0 mi ENE 17.3 mph 20.7 mph N/A   Overcast
9:15 AM 42.8 °F 35.1 °F 32.0 °F 66% 30.15 in 10.0 mi ENE 16.1 mph 23.0 mph N/A   Overcast
9:35 AM 42.8 °F 35.4 °F 32.0 °F 66% 30.15 in 10.0 mi ENE 15.0 mph 23.0 mph N/A   Overcast
10:15 AM 44.6 °F 36.6 °F 32.0 °F 61% 30.13 in 10.0 mi East 19.6 mph 28.8 mph N/A   Mostly Cloudy
10:35 AM 44.6 °F 38.8 °F 32.0 °F 61% 30.15 in 10.0 mi NE 11.5 mph 21.9 mph N/A   Mostly Cloudy
10:55 AM 44.6 °F 38.1 °F 32.0 °F 61% 30.15 in 10.0 mi East 13.8 mph 23.0 mph N/A   Mostly Cloudy
11:15 AM 44.6 °F 37.8 °F 33.8 °F 66% 30.13 in 10.0 mi ENE 15.0 mph 19.6 mph N/A   Mostly Cloudy
11:35 AM 46.4 °F 40.1 °F 33.8 °F 62% 30.12 in 10.0 mi ENE 15.0 mph 24.2 mph N/A   Scattered Clouds
11:55 AM 46.4 °F 40.1 °F 33.8 °F 62% 30.13 in 10.0 mi ENE 15.0 mph 21.9 mph N/A   Scattered Clouds
12:15 PM 48.2 °F - 35.6 °F 62% 30.12 in 10.0 mi ENE 16.1 mph 23.0 mph N/A   Scattered Clouds
12:35 PM 50.0 °F - 35.6 °F 58% 30.12 in 10.0 mi ENE 17.3 mph 23.0 mph N/A   Mostly Cloudy
12:55 PM 50.0 °F - 35.6 °F 58% 30.12 in 10.0 mi ENE 13.8 mph 17.3 mph N/A   Mostly Cloudy
1:15 PM 50.0 °F - 33.8 °F 54% 30.12 in 10.0 mi East 13.8 mph 18.4 mph N/A   Overcast
1:35 PM 50.0 °F - 33.8 °F 54% 30.12 in 10.0 mi East 12.7 mph - N/A   Overcast
1:55 PM 50.0 °F - 33.8 °F 54% 30.12 in 10.0 mi East 12.7 mph - N/A   Overcast
2:15 PM 50.0 °F - 33.8 °F 54% 30.12 in 10.0 mi East 13.8 mph 19.6 mph N/A   Overcast
2:55 PM 50.0 °F - 33.8 °F 54% 30.13 in 10.0 mi East 10.4 mph - N/A   Overcast
3:15 PM 50.0 °F - 32.0 °F 50% 30.14 in 10.0 mi East 10.4 mph - N/A   Overcast
3:35 PM 50.0 °F - 32.0 °F 50% 30.14 in 10.0 mi ENE 10.4 mph - N/A   Overcast
3:55 PM 50.0 °F - 32.0 °F 50% 30.14 in 10.0 mi NE 9.2 mph - N/A   Overcast
4:15 PM 50.0 °F - 32.0 °F 50% 30.14 in 10.0 mi NE 9.2 mph - N/A   Overcast
4:35 PM 50.0 °F - 32.0 °F 50% 30.12 in 10.0 mi ENE 11.5 mph 17.3 mph N/A   Overcast
4:55 PM 50.0 °F - 32.0 °F 50% 30.10 in 10.0 mi ENE 13.8 mph 19.6 mph N/A   Overcast
5:15 PM 50.0 °F - 32.0 °F 50% 30.12 in 10.0 mi East 16.1 mph 20.7 mph N/A   Overcast
5:35 PM 50.0 °F - 30.2 °F 47% 30.11 in 10.0 mi NE 15.0 mph 20.7 mph N/A   Overcast
5:55 PM 48.2 °F - 30.2 °F 50% 30.11 in 10.0 mi ENE 11.5 mph - N/A   Overcast
6:15 PM 48.2 °F - 30.2 °F 50% 30.11 in 10.0 mi East 15.0 mph - N/A   Overcast
6:35 PM 46.4 °F 39.8 °F 28.4 °F 50% 30.11 in 10.0 mi ENE 16.1 mph 23.0 mph N/A   Overcast
6:55 PM 46.4 °F 40.7 °F 30.2 °F 53% 30.11 in 10.0 mi ENE 12.7 mph 17.3 mph N/A   Overcast
7:15 PM 46.4 °F 40.4 °F 30.2 °F 53% 30.12 in 10.0 mi ENE 13.8 mph - N/A   Overcast
7:35 PM 46.4 °F 41.9 °F 30.2 °F 53% 30.11 in 10.0 mi ENE 9.2 mph - N/A   Overcast
7:55 PM 44.6 °F 40.2 °F 30.2 °F 57% 30.12 in 10.0 mi ENE 8.1 mph - N/A   Mostly Cloudy
8:15 PM 44.6 °F 39.7 °F 30.2 °F 57% 30.11 in 10.0 mi NE 9.2 mph - N/A   Mostly Cloudy
8:35 PM 44.6 °F 39.2 °F 30.2 °F 57% 30.12 in 10.0 mi ENE 10.4 mph - N/A   Mostly Cloudy
8:55 PM 44.6 °F 39.2 °F 30.2 °F 57% 30.12 in 10.0 mi ENE 10.4 mph - N/A   Overcast
9:15 PM 44.6 °F 40.7 °F 32.0 °F 61% 30.12 in 10.0 mi ENE 6.9 mph - N/A   Overcast
9:35 PM 44.6 °F 40.7 °F 32.0 °F 61% 30.13 in 10.0 mi NE 6.9 mph - N/A   Overcast
10:15 PM 44.6 °F 41.4 °F 32.0 °F 61% 30.16 in 10.0 mi ENE 5.8 mph - N/A   Overcast
10:35 PM 44.6 °F 43.1 °F 32.0 °F 61% 30.17 in 10.0 mi NE 3.5 mph - N/A   Overcast
10:55 PM 44.6 °F - 32.0 °F 61% 30.17 in 10.0 mi Calm Calm - N/A   Mostly Cloudy
11:15 PM 42.8 °F 41.1 °F 33.8 °F 70% 30.17 in 10.0 mi NNE 3.5 mph - N/A   Overcast
11:35 PM 42.8 °F - 33.8 °F 70% 30.17 in 4.0 mi Calm Calm - 0.01 in   Overcast
11:55 PM 42.8 °F 40.1 °F 35.6 °F 76% 30.17 in 5.0 mi ESE 4.6 mph - 0.03 in   Overcast